Time,TemperatureF,DewpointF,PressureIn,WindDirection,WindDirectionDegrees,WindSpeedMPH,WindSpeedGustMPH,Humidity,HourlyPrecipIn,Conditions,Clouds,dailyrainin,SoftwareType,DateUTC
2013-10-27 00:01:00,46.2,35.8,30.08,NW,305,0.0,0.0,67,0.00,,,0.00,Wunderground v.1.15,2013-10-27 04:01:00,
2013-10-27 00:03:00,46.1,35.7,30.09,NW,305,0.0,0.0,67,0.00,,,0.00,Wunderground v.1.15,2013-10-27 04:03:00,
2013-10-27 00:09:00,45.8,35.8,30.09,NW,305,0.0,0.0,68,0.00,,,0.00,Wunderground v.1.15,2013-10-27 04:09:00,
2013-10-27 00:15:00,45.3,36.1,30.09,NW,305,0.0,0.0,70,0.00,,,0.00,Wunderground v.1.15,2013-10-27 04:15:00,
2013-10-27 00:17:00,45.1,35.9,30.09,NW,305,0.0,0.0,70,0.00,,,0.00,Wunderground v.1.15,2013-10-27 04:17:00,
2013-10-27 00:23:00,44.6,36.1,30.09,NW,305,0.0,0.0,72,0.00,,,0.00,Wunderground v.1.15,2013-10-27 04:23:00,
2013-10-27 00:29:00,43.9,35.8,30.09,NW,305,0.0,0.0,73,0.00,,,0.00,Wunderground v.1.15,2013-10-27 04:29:00,
2013-10-27 00:35:00,43.6,35.5,30.09,NW,305,0.0,0.0,73,0.00,,,0.00,Wunderground v.1.15,2013-10-27 04:35:00,
2013-10-27 00:41:00,43.3,35.6,30.09,NW,305,0.0,0.0,74,0.00,,,0.00,Wunderground v.1.15,2013-10-27 04:41:00,
2013-10-27 00:47:00,43.1,35.4,30.09,NW,305,0.0,0.0,74,0.00,,,0.00,Wunderground v.1.15,2013-10-27 04:47:00,
2013-10-27 00:53:00,42.9,35.2,30.09,NW,305,0.0,0.0,74,0.00,,,0.00,Wunderground v.1.15,2013-10-27 04:53:00,
2013-10-27 00:59:00,42.4,35.4,30.09,NW,305,0.0,0.0,76,0.00,,,0.00,Wunderground v.1.15,2013-10-27 04:59:00,
2013-10-27 01:05:00,42.2,35.5,30.09,NW,305,0.0,0.0,77,0.00,,,0.00,Wunderground v.1.15,2013-10-27 05:05:00,
2013-10-27 01:11:00,42.1,35.4,30.09,NW,305,0.0,0.0,77,0.00,,,0.00,Wunderground v.1.15,2013-10-27 05:11:00,
2013-10-27 01:17:00,42.0,35.6,30.09,NW,305,0.0,0.0,78,0.00,,,0.00,Wunderground v.1.15,2013-10-27 05:17:00,
2013-10-27 01:23:00,41.8,35.1,30.08,NW,305,0.0,0.0,77,0.00,,,0.00,Wunderground v.1.15,2013-10-27 05:23:00,
2013-10-27 01:29:00,41.7,35.0,30.08,NW,305,0.0,0.0,77,0.00,,,0.00,Wunderground v.1.15,2013-10-27 05:29:00,
2013-10-27 01:35:00,41.3,35.3,30.08,NW,305,0.0,0.0,79,0.00,,,0.00,Wunderground v.1.15,2013-10-27 05:35:00,
2013-10-27 01:41:00,40.7,35.0,30.09,NW,305,0.0,0.0,80,0.00,,,0.00,Wunderground v.1.15,2013-10-27 05:41:00,
2013-10-27 01:47:00,40.3,34.6,30.09,NW,305,0.0,0.0,80,0.00,,,0.00,Wunderground v.1.15,2013-10-27 05:47:00,
2013-10-27 01:53:00,40.0,34.6,30.09,NW,305,0.0,0.0,81,0.00,,,0.00,Wunderground v.1.15,2013-10-27 05:53:00,
2013-10-27 01:59:00,39.7,34.3,30.09,NW,305,0.0,0.0,81,0.00,,,0.00,Wunderground v.1.15,2013-10-27 05:59:00,
2013-10-27 02:05:00,39.4,34.4,30.08,NW,305,0.0,0.0,82,0.00,,,0.00,Wunderground v.1.15,2013-10-27 06:05:00,
2013-10-27 02:11:00,39.0,34.0,30.08,NW,305,0.0,0.0,82,0.00,,,0.00,Wunderground v.1.15,2013-10-27 06:11:00,
2013-10-27 02:17:00,38.6,33.9,30.08,NW,305,0.0,0.0,83,0.00,,,0.00,Wunderground v.1.15,2013-10-27 06:17:00,
2013-10-27 02:23:00,38.2,33.8,30.08,NW,305,0.0,0.0,84,0.00,,,0.00,Wunderground v.1.15,2013-10-27 06:23:00,
2013-10-27 02:29:00,37.9,33.5,30.08,NW,305,0.0,0.0,84,0.00,,,0.00,Wunderground v.1.15,2013-10-27 06:29:00,
2013-10-27 02:35:00,37.8,34.0,30.08,NW,305,0.0,0.0,86,0.00,,,0.00,Wunderground v.1.15,2013-10-27 06:35:00,
2013-10-27 02:41:00,37.7,33.9,30.07,NW,305,0.0,0.0,86,0.00,,,0.00,Wunderground v.1.15,2013-10-27 06:41:00,
2013-10-27 02:47:00,37.4,33.6,30.07,NW,305,0.0,0.0,86,0.00,,,0.00,Wunderground v.1.15,2013-10-27 06:47:00,
2013-10-27 02:53:00,37.3,33.8,30.07,NW,305,0.0,0.0,87,0.00,,,0.00,Wunderground v.1.15,2013-10-27 06:53:00,
2013-10-27 02:59:00,37.3,33.8,30.07,NW,305,0.0,0.0,87,0.00,,,0.00,Wunderground v.1.15,2013-10-27 06:59:00,
2013-10-27 03:05:00,37.3,34.1,30.07,NW,305,0.0,0.0,88,0.00,,,0.00,Wunderground v.1.15,2013-10-27 07:05:00,
2013-10-27 03:11:00,37.4,34.2,30.07,NW,305,0.0,0.0,88,0.00,,,0.00,Wunderground v.1.15,2013-10-27 07:11:00,
2013-10-27 03:17:00,37.3,33.8,30.07,NW,305,0.0,0.0,87,0.00,,,0.00,Wunderground v.1.15,2013-10-27 07:17:00,
2013-10-27 03:23:00,37.2,33.7,30.07,NW,305,0.0,0.0,87,0.00,,,0.00,Wunderground v.1.15,2013-10-27 07:23:00,
2013-10-27 03:29:00,37.0,33.5,30.06,NW,305,0.0,0.0,87,0.00,,,0.00,Wunderground v.1.15,2013-10-27 07:29:00,
2013-10-27 03:35:00,36.8,33.6,30.06,NW,305,0.0,0.0,88,0.00,,,0.00,Wunderground v.1.15,2013-10-27 07:35:00,
2013-10-27 03:41:00,36.8,33.6,30.06,NW,305,0.0,0.0,88,0.00,,,0.00,Wunderground v.1.15,2013-10-27 07:41:00,
2013-10-27 03:47:00,36.6,33.4,30.06,NW,305,0.0,0.0,88,0.00,,,0.00,Wunderground v.1.15,2013-10-27 07:47:00,
2013-10-27 03:53:00,36.4,33.5,30.06,NW,305,0.0,0.0,89,0.00,,,0.00,Wunderground v.1.15,2013-10-27 07:53:00,
2013-10-27 03:59:00,36.1,33.2,30.06,NW,305,0.0,0.0,89,0.00,,,0.00,Wunderground v.1.15,2013-10-27 07:59:00,
2013-10-27 04:05:00,35.9,33.0,30.06,NW,305,0.0,0.0,89,0.00,,,0.00,Wunderground v.1.15,2013-10-27 08:05:00,
2013-10-27 04:11:00,35.6,32.7,30.06,NW,305,0.0,0.0,89,0.00,,,0.00,Wunderground v.1.15,2013-10-27 08:11:00,
2013-10-27 04:17:00,35.3,32.7,30.06,NW,305,0.0,0.0,90,0.00,,,0.00,Wunderground v.1.15,2013-10-27 08:17:00,
2013-10-27 04:23:00,35.1,32.5,30.06,NW,305,0.0,0.0,90,0.00,,,0.00,Wunderground v.1.15,2013-10-27 08:23:00,
2013-10-27 04:29:00,34.7,32.1,30.06,NW,305,0.0,0.0,90,0.00,,,0.00,Wunderground v.1.15,2013-10-27 08:29:00,
2013-10-27 04:35:00,34.6,32.2,30.06,NW,305,0.0,0.0,91,0.00,,,0.00,Wunderground v.1.15,2013-10-27 08:35:00,
2013-10-27 04:41:00,34.4,32.0,30.06,NW,305,0.0,0.0,91,0.00,,,0.00,Wunderground v.1.15,2013-10-27 08:41:00,
2013-10-27 04:47:00,34.1,31.7,30.06,NW,305,0.0,0.0,91,0.00,,,0.00,Wunderground v.1.15,2013-10-27 08:47:00,
2013-10-27 04:53:00,33.9,31.6,30.06,NW,305,0.0,0.0,91,0.00,,,0.00,Wunderground v.1.15,2013-10-27 08:53:00,
2013-10-27 04:59:00,33.7,31.4,30.06,NW,305,0.0,0.0,91,0.00,,,0.00,Wunderground v.1.15,2013-10-27 08:59:00,
2013-10-27 05:05:00,33.5,31.2,30.06,NW,305,0.0,0.0,91,0.00,,,0.00,Wunderground v.1.15,2013-10-27 09:05:00,
2013-10-27 05:11:00,33.2,31.1,30.06,NW,305,0.0,0.0,92,0.00,,,0.00,Wunderground v.1.15,2013-10-27 09:11:00,
2013-10-27 05:17:00,33.2,31.1,30.07,NW,305,0.0,0.0,92,0.00,,,0.00,Wunderground v.1.15,2013-10-27 09:17:00,
2013-10-27 05:23:00,33.3,31.5,30.07,NW,305,0.0,0.0,93,0.00,,,0.00,Wunderground v.1.15,2013-10-27 09:23:00,
2013-10-27 05:29:00,33.4,31.6,30.07,NW,305,0.0,0.0,93,0.00,,,0.00,Wunderground v.1.15,2013-10-27 09:29:00,
2013-10-27 05:35:00,33.3,31.5,30.07,NW,305,0.0,0.0,93,0.00,,,0.00,Wunderground v.1.15,2013-10-27 09:35:00,
2013-10-27 05:41:00,33.2,31.4,30.07,NW,305,0.0,0.0,93,0.00,,,0.00,Wunderground v.1.15,2013-10-27 09:41:00,
2013-10-27 05:47:00,33.2,31.4,30.07,NW,305,0.0,0.0,93,0.00,,,0.00,Wunderground v.1.15,2013-10-27 09:47:00,
2013-10-27 05:53:00,33.1,31.3,30.07,NW,305,0.0,0.0,93,0.00,,,0.00,Wunderground v.1.15,2013-10-27 09:53:00,
2013-10-27 05:59:00,33.1,31.6,30.07,NW,305,0.0,0.0,94,0.00,,,0.00,Wunderground v.1.15,2013-10-27 09:59:00,
2013-10-27 06:05:00,33.0,31.5,30.07,NW,305,0.0,0.0,94,0.00,,,0.00,Wunderground v.1.15,2013-10-27 10:05:00,
2013-10-27 06:11:00,32.9,31.4,30.07,NW,305,0.0,0.0,94,0.00,,,0.00,Wunderground v.1.15,2013-10-27 10:11:00,
2013-10-27 06:17:00,32.8,31.3,30.07,NW,305,0.0,0.0,94,0.00,,,0.00,Wunderground v.1.15,2013-10-27 10:17:00,
2013-10-27 06:23:00,32.8,31.3,30.07,NW,305,0.0,0.0,94,0.00,,,0.00,Wunderground v.1.15,2013-10-27 10:23:00,
2013-10-27 06:29:00,32.8,31.3,30.07,NW,305,0.0,0.0,94,0.00,,,0.00,Wunderground v.1.15,2013-10-27 10:29:00,
2013-10-27 06:35:00,32.8,31.3,30.07,NW,305,0.0,0.0,94,0.00,,,0.00,Wunderground v.1.15,2013-10-27 10:35:00,
2013-10-27 06:41:00,32.9,31.4,30.08,NW,305,0.0,0.0,94,0.00,,,0.00,Wunderground v.1.15,2013-10-27 10:41:00,
2013-10-27 06:47:00,32.8,31.3,30.08,NW,305,0.0,0.0,94,0.00,,,0.00,Wunderground v.1.15,2013-10-27 10:47:00,
2013-10-27 06:53:00,32.7,31.2,30.08,NW,305,0.0,0.0,94,0.00,,,0.00,Wunderground v.1.15,2013-10-27 10:53:00,
2013-10-27 06:59:00,32.6,31.1,30.08,NW,305,0.0,0.0,94,0.00,,,0.00,Wunderground v.1.15,2013-10-27 10:59:00,
2013-10-27 07:05:00,32.7,31.4,30.08,NW,305,0.0,0.0,95,0.00,,,0.00,Wunderground v.1.15,2013-10-27 11:05:00,
2013-10-27 07:11:00,32.8,31.5,30.07,NW,305,0.0,0.0,95,0.00,,,0.00,Wunderground v.1.15,2013-10-27 11:11:00,
2013-10-27 07:17:00,32.9,31.6,30.08,NW,305,0.0,0.0,95,0.00,,,0.00,Wunderground v.1.15,2013-10-27 11:17:00,
2013-10-27 07:23:00,33.0,31.7,30.07,NW,305,0.0,0.0,95,0.00,,,0.00,Wunderground v.1.15,2013-10-27 11:23:00,
2013-10-27 07:29:00,33.1,31.8,30.07,NW,305,0.0,0.0,95,0.00,,,0.00,Wunderground v.1.15,2013-10-27 11:29:00,
2013-10-27 07:35:00,33.3,32.0,30.07,NW,305,0.0,0.0,95,0.00,,,0.00,Wunderground v.1.15,2013-10-27 11:35:00,
2013-10-27 07:41:00,33.5,32.2,30.07,NW,305,0.0,0.0,95,0.00,,,0.00,Wunderground v.1.15,2013-10-27 11:41:00,
2013-10-27 07:47:00,33.2,31.7,30.07,NW,305,0.0,0.0,94,0.00,,,0.00,Wunderground v.1.15,2013-10-27 11:47:00,
2013-10-27 07:53:00,33.1,31.6,30.07,NW,305,0.0,0.0,94,0.00,,,0.00,Wunderground v.1.15,2013-10-27 11:53:00,
2013-10-27 07:59:00,33.0,31.5,30.08,NW,305,0.0,0.0,94,0.00,,,0.00,Wunderground v.1.15,2013-10-27 11:59:00,
2013-10-27 08:05:00,32.9,31.4,30.07,NW,305,0.0,0.0,94,0.00,,,0.00,Wunderground v.1.15,2013-10-27 12:05:00,
2013-10-27 08:11:00,32.5,31.0,30.08,NW,305,0.0,0.0,94,0.00,,,0.00,Wunderground v.1.15,2013-10-27 12:11:00,
2013-10-27 08:17:00,32.1,30.6,30.07,NW,305,0.0,0.0,94,0.00,,,0.00,Wunderground v.1.15,2013-10-27 12:17:00,
2013-10-27 08:23:00,32.0,30.5,30.08,NW,305,0.0,0.0,94,0.00,,,0.00,Wunderground v.1.15,2013-10-27 12:23:00,
2013-10-27 08:29:00,32.1,30.6,30.08,NW,305,0.0,0.0,94,0.00,,,0.00,Wunderground v.1.15,2013-10-27 12:29:00,
2013-10-27 08:33:00,32.2,30.7,30.09,NW,305,0.0,0.0,94,0.00,,,0.00,Wunderground v.1.15,2013-10-27 12:33:00,
2013-10-27 08:39:00,32.3,30.8,30.09,NW,305,0.0,0.0,94,0.00,,,0.00,Wunderground v.1.15,2013-10-27 12:39:00,
2013-10-27 08:45:00,32.9,31.6,30.09,NW,305,0.0,0.0,95,0.00,,,0.00,Wunderground v.1.15,2013-10-27 12:45:00,
2013-10-27 08:51:00,34.1,32.8,30.09,NW,305,0.0,0.0,95,0.00,,,0.00,Wunderground v.1.15,2013-10-27 12:51:00,
2013-10-27 08:57:00,35.0,34.0,30.09,NW,305,0.0,0.0,96,0.00,,,0.00,Wunderground v.1.15,2013-10-27 12:57:00,
2013-10-27 09:03:00,35.1,33.8,30.09,NW,305,0.0,0.0,95,0.00,,,0.00,Wunderground v.1.15,2013-10-27 13:03:00,
2013-10-27 09:09:00,35.2,33.9,30.10,NW,305,0.0,0.0,95,0.00,,,0.00,Wunderground v.1.15,2013-10-27 13:09:00,
2013-10-27 09:15:00,35.4,34.1,30.10,NW,305,0.0,0.0,95,0.00,,,0.00,Wunderground v.1.15,2013-10-27 13:15:00,
2013-10-27 09:21:00,36.0,34.7,30.10,NW,305,0.0,0.0,95,0.00,,,0.00,Wunderground v.1.15,2013-10-27 13:21:00,
2013-10-27 09:27:00,36.6,35.3,30.10,NW,305,0.0,0.0,95,0.00,,,0.00,Wunderground v.1.15,2013-10-27 13:27:00,
2013-10-27 09:33:00,37.4,36.1,30.10,NW,305,0.0,0.0,95,0.00,,,0.00,Wunderground v.1.15,2013-10-27 13:33:00,
2013-10-27 09:39:00,38.3,37.0,30.11,NW,305,0.0,0.0,95,0.00,,,0.00,Wunderground v.1.15,2013-10-27 13:39:00,
2013-10-27 09:45:00,39.4,38.1,30.11,WNW,302,0.0,0.0,95,0.00,,,0.00,Wunderground v.1.15,2013-10-27 13:45:00,
2013-10-27 09:51:00,40.4,38.8,30.11,WNW,302,0.0,0.0,94,0.00,,,0.00,Wunderground v.1.15,2013-10-27 13:51:00,
2013-10-27 09:57:00,41.2,39.1,30.11,WNW,302,0.0,0.0,92,0.00,,,0.00,Wunderground v.1.15,2013-10-27 13:57:00,
2013-10-27 10:03:00,42.3,39.9,30.11,WNW,302,0.0,0.0,91,0.00,,,0.00,Wunderground v.1.15,2013-10-27 14:03:00,
2013-10-27 10:09:00,43.3,40.3,30.11,WNW,302,0.0,0.0,89,0.00,,,0.00,Wunderground v.1.15,2013-10-27 14:09:00,
2013-10-27 10:15:00,44.3,40.4,30.11,WNW,302,0.0,0.0,86,0.00,,,0.00,Wunderground v.1.15,2013-10-27 14:15:00,
2013-10-27 10:21:00,45.2,40.7,30.11,WNW,302,0.0,0.0,84,0.00,,,0.00,Wunderground v.1.15,2013-10-27 14:21:00,
2013-10-27 10:27:00,46.0,40.5,30.11,WNW,302,0.0,0.0,81,0.00,,,0.00,Wunderground v.1.15,2013-10-27 14:27:00,
2013-10-27 10:33:00,46.7,40.5,30.11,WNW,302,0.0,0.0,79,0.00,,,0.00,Wunderground v.1.15,2013-10-27 14:33:00,
2013-10-27 10:39:00,47.1,39.6,30.11,WNW,290,0.0,3.0,75,0.00,,,0.00,Wunderground v.1.15,2013-10-27 14:39:00,
2013-10-27 10:45:00,47.3,39.8,30.11,WNW,287,0.0,1.0,75,0.00,,,0.00,Wunderground v.1.15,2013-10-27 14:45:00,
2013-10-27 10:51:00,47.7,40.5,30.11,South,182,1.0,2.0,76,0.00,,,0.00,Wunderground v.1.15,2013-10-27 14:51:00,
2013-10-27 10:57:00,48.1,40.5,30.11,ENE,78,1.0,2.0,75,0.00,,,0.00,Wunderground v.1.15,2013-10-27 14:57:00,
2013-10-27 11:03:00,48.5,39.9,30.11,East,82,1.0,1.0,72,0.00,,,0.00,Wunderground v.1.15,2013-10-27 15:03:00,
2013-10-27 11:09:00,49.0,40.7,30.11,East,93,1.0,1.0,73,0.00,,,0.00,Wunderground v.1.15,2013-10-27 15:09:00,
2013-10-27 11:15:00,49.6,41.3,30.11,East,93,1.0,2.0,73,0.00,,,0.00,Wunderground v.1.15,2013-10-27 15:15:00,
2013-10-27 11:21:00,50.1,40.7,30.11,East,93,1.0,1.0,70,0.00,,,0.00,Wunderground v.1.15,2013-10-27 15:21:00,
2013-10-27 11:27:00,50.7,42.0,30.11,East,93,0.0,1.0,72,0.00,,,0.00,Wunderground v.1.15,2013-10-27 15:27:00,
2013-10-27 11:33:00,51.2,41.4,30.11,East,93,0.0,2.0,69,0.00,,,0.00,Wunderground v.1.15,2013-10-27 15:33:00,
2013-10-27 11:39:00,51.5,40.5,30.11,South,176,1.0,2.0,66,0.00,,,0.00,Wunderground v.1.15,2013-10-27 15:39:00,
2013-10-27 11:45:00,51.8,40.4,30.11,West,264,2.0,3.0,65,0.00,,,0.00,Wunderground v.1.15,2013-10-27 15:45:00,
2013-10-27 11:51:00,52.0,41.4,30.11,WSW,258,2.0,2.0,67,0.00,,,0.00,Wunderground v.1.15,2013-10-27 15:51:00,
2013-10-27 11:57:00,52.3,41.7,30.11,WSW,257,1.0,4.0,67,0.00,,,0.00,Wunderground v.1.15,2013-10-27 15:57:00,
2013-10-27 12:03:00,52.6,39.5,30.11,West,270,1.0,1.0,61,0.00,,,0.00,Wunderground v.1.15,2013-10-27 16:03:00,
2013-10-27 12:09:00,53.1,39.1,30.11,WNW,288,0.0,4.0,59,0.00,,,0.00,Wunderground v.1.15,2013-10-27 16:09:00,
2013-10-27 12:15:00,53.4,39.9,30.11,WNW,288,1.0,2.0,60,0.00,,,0.00,Wunderground v.1.15,2013-10-27 16:15:00,
2013-10-27 12:21:00,53.9,39.9,30.11,WNW,296,0.0,3.0,59,0.00,,,0.00,Wunderground v.1.15,2013-10-27 16:21:00,
2013-10-27 12:27:00,54.4,40.8,30.11,WNW,294,1.0,3.0,60,0.00,,,0.00,Wunderground v.1.15,2013-10-27 16:27:00,
2013-10-27 12:33:00,54.3,38.9,30.11,NE,48,2.0,2.0,56,0.00,,,0.00,Wunderground v.1.15,2013-10-27 16:33:00,
2013-10-27 12:39:00,54.4,39.5,30.10,NE,47,2.0,2.0,57,0.00,,,0.00,Wunderground v.1.15,2013-10-27 16:39:00,
2013-10-27 12:45:00,54.6,41.0,30.10,NNE,20,1.0,2.0,60,0.00,,,0.00,Wunderground v.1.15,2013-10-27 16:45:00,
2013-10-27 12:51:00,54.7,38.4,30.10,NW,306,1.0,1.0,54,0.00,,,0.00,Wunderground v.1.15,2013-10-27 16:51:00,
2013-10-27 12:57:00,54.9,38.6,30.10,WNW,298,2.0,4.0,54,0.00,,,0.00,Wunderground v.1.15,2013-10-27 16:57:00,
2013-10-27 13:03:00,54.8,38.9,30.10,WNW,294,2.0,3.0,55,0.00,,,0.00,Wunderground v.1.15,2013-10-27 17:03:00,
2013-10-27 13:09:00,55.1,39.2,30.10,WSW,242,2.0,4.0,55,0.00,,,0.00,Wunderground v.1.15,2013-10-27 17:09:00,
2013-10-27 13:15:00,55.3,39.4,30.10,WSW,246,2.0,4.0,55,0.00,,,0.00,Wunderground v.1.15,2013-10-27 17:15:00,
2013-10-27 13:21:00,55.2,37.4,30.10,WSW,246,2.0,2.0,51,0.00,,,0.00,Wunderground v.1.15,2013-10-27 17:21:00,
2013-10-27 13:27:00,55.3,38.4,30.09,WSW,246,2.0,4.0,53,0.00,,,0.00,Wunderground v.1.15,2013-10-27 17:27:00,
2013-10-27 13:33:00,55.3,37.0,30.09,West,259,2.0,2.0,50,0.00,,,0.00,Wunderground v.1.15,2013-10-27 17:33:00,
2013-10-27 13:39:00,55.4,38.5,30.09,West,259,2.0,4.0,53,0.00,,,0.00,Wunderground v.1.15,2013-10-27 17:39:00,
2013-10-27 13:45:00,55.6,37.7,30.08,NW,323,2.0,4.0,51,0.00,,,0.00,Wunderground v.1.15,2013-10-27 17:45:00,
2013-10-27 13:51:00,55.9,38.0,30.08,North,5,2.0,4.0,51,0.00,,,0.00,Wunderground v.1.15,2013-10-27 17:51:00,
2013-10-27 13:57:00,56.0,38.6,30.08,WNW,293,2.0,4.0,52,0.00,,,0.00,Wunderground v.1.15,2013-10-27 17:57:00,
2013-10-27 14:03:00,56.2,37.8,30.07,WNW,290,2.0,4.0,50,0.00,,,0.00,Wunderground v.1.15,2013-10-27 18:03:00,
2013-10-27 14:09:00,56.2,37.8,30.07,WNW,296,2.0,5.0,50,0.00,,,0.00,Wunderground v.1.15,2013-10-27 18:09:00,
2013-10-27 14:15:00,56.3,36.8,30.07,NNW,336,1.0,1.0,48,0.00,,,0.00,Wunderground v.1.15,2013-10-27 18:15:00,
2013-10-27 14:21:00,56.7,37.2,30.07,WNW,288,1.0,1.0,48,0.00,,,0.00,Wunderground v.1.15,2013-10-27 18:21:00,
2013-10-27 14:27:00,56.9,37.9,30.06,WNW,296,1.0,2.0,49,0.00,,,0.00,Wunderground v.1.15,2013-10-27 18:27:00,
2013-10-27 14:33:00,57.0,39.5,30.06,WNW,285,1.0,2.0,52,0.00,,,0.00,Wunderground v.1.15,2013-10-27 18:33:00,
2013-10-27 14:39:00,57.0,39.0,30.05,West,260,2.0,4.0,51,0.00,,,0.00,Wunderground v.1.15,2013-10-27 18:39:00,
2013-10-27 14:45:00,57.1,38.1,30.05,West,262,2.0,5.0,49,0.00,,,0.00,Wunderground v.1.15,2013-10-27 18:45:00,
2013-10-27 14:51:00,57.2,38.2,30.05,WSW,258,1.0,2.0,49,0.00,,,0.00,Wunderground v.1.15,2013-10-27 18:51:00,
2013-10-27 14:57:00,57.3,37.8,30.05,SE,136,1.0,2.0,48,0.00,,,0.00,Wunderground v.1.15,2013-10-27 18:57:00,
2013-10-27 15:03:00,57.5,37.9,30.05,SSE,153,1.0,2.0,48,0.00,,,0.00,Wunderground v.1.15,2013-10-27 19:03:00,
2013-10-27 15:09:00,57.8,37.7,30.05,SW,223,2.0,4.0,47,0.00,,,0.00,Wunderground v.1.15,2013-10-27 19:09:00,
2013-10-27 15:15:00,57.7,38.7,30.05,SW,231,2.0,3.0,49,0.00,,,0.00,Wunderground v.1.15,2013-10-27 19:15:00,
2013-10-27 15:21:00,57.6,36.4,30.05,SW,234,1.0,1.0,45,0.00,,,0.00,Wunderground v.1.15,2013-10-27 19:21:00,
2013-10-27 15:27:00,57.6,38.0,30.05,WSW,252,1.0,2.0,48,0.00,,,0.00,Wunderground v.1.15,2013-10-27 19:27:00,
2013-10-27 15:33:00,57.8,36.6,30.05,WSW,239,1.0,1.0,45,0.00,,,0.00,Wunderground v.1.15,2013-10-27 19:33:00,
2013-10-27 15:39:00,57.8,36.0,30.05,SW,236,1.0,2.0,44,0.00,,,0.00,Wunderground v.1.15,2013-10-27 19:39:00,
2013-10-27 15:45:00,57.7,38.1,30.05,SW,221,1.0,1.0,48,0.00,,,0.00,Wunderground v.1.15,2013-10-27 19:45:00,
2013-10-27 15:51:00,58.1,39.0,30.04,SW,230,1.0,1.0,49,0.00,,,0.00,Wunderground v.1.15,2013-10-27 19:51:00,
2013-10-27 15:57:00,58.6,37.9,30.04,SW,226,2.0,2.0,46,0.00,,,0.00,Wunderground v.1.15,2013-10-27 19:57:00,
2013-10-27 16:03:00,58.8,36.9,30.04,SW,230,1.0,5.0,44,0.00,,,0.00,Wunderground v.1.15,2013-10-27 20:03:00,
2013-10-27 16:09:00,58.7,39.0,30.04,SW,223,1.0,5.0,48,0.00,,,0.00,Wunderground v.1.15,2013-10-27 20:09:00,
2013-10-27 16:15:00,58.7,37.4,30.04,SW,223,0.0,0.0,45,0.00,,,0.00,Wunderground v.1.15,2013-10-27 20:15:00,
2013-10-27 16:21:00,58.6,37.9,30.04,SW,223,0.0,0.0,46,0.00,,,0.00,Wunderground v.1.15,2013-10-27 20:21:00,
2013-10-27 16:27:00,58.7,38.5,30.04,SW,223,0.0,0.0,47,0.00,,,0.00,Wunderground v.1.15,2013-10-27 20:27:00,
2013-10-27 16:33:00,59.0,37.7,30.04,SW,221,0.0,0.0,45,0.00,,,0.00,Wunderground v.1.15,2013-10-27 20:33:00,
2013-10-27 16:39:00,58.9,38.1,30.04,South,180,1.0,1.0,46,0.00,,,0.00,Wunderground v.1.15,2013-10-27 20:39:00,
2013-10-27 16:45:00,59.1,37.8,30.04,South,181,1.0,3.0,45,0.00,,,0.00,Wunderground v.1.15,2013-10-27 20:45:00,
2013-10-27 16:51:00,58.8,36.9,30.04,SW,220,2.0,2.0,44,0.00,,,0.00,Wunderground v.1.15,2013-10-27 20:51:00,
2013-10-27 16:57:00,58.9,37.0,30.04,SW,222,1.0,3.0,44,0.00,,,0.00,Wunderground v.1.15,2013-10-27 20:57:00,
2013-10-27 17:03:00,59.0,37.1,30.04,SW,219,0.0,1.0,44,0.00,,,0.00,Wunderground v.1.15,2013-10-27 21:03:00,
2013-10-27 17:09:00,59.4,38.0,30.04,SW,219,0.0,1.0,45,0.00,,,0.00,Wunderground v.1.15,2013-10-27 21:09:00,
2013-10-27 17:15:00,59.3,36.8,30.04,SW,219,1.0,3.0,43,0.00,,,0.00,Wunderground v.1.15,2013-10-27 21:15:00,
2013-10-27 17:21:00,59.4,37.5,30.04,SW,219,0.0,0.0,44,0.00,,,0.00,Wunderground v.1.15,2013-10-27 21:21:00,
2013-10-27 17:27:00,59.6,38.2,30.03,SW,219,0.0,0.0,45,0.00,,,0.00,Wunderground v.1.15,2013-10-27 21:27:00,
2013-10-27 17:33:00,59.6,37.1,30.03,WSW,247,0.0,1.0,43,0.00,,,0.00,Wunderground v.1.15,2013-10-27 21:33:00,
2013-10-27 17:39:00,59.5,37.0,30.03,WSW,247,0.0,1.0,43,0.00,,,0.00,Wunderground v.1.15,2013-10-27 21:39:00,
2013-10-27 17:45:00,59.4,37.5,30.03,WSW,247,0.0,0.0,44,0.00,,,0.00,Wunderground v.1.15,2013-10-27 21:45:00,
2013-10-27 17:51:00,59.4,38.0,30.03,WSW,247,0.0,0.0,45,0.00,,,0.00,Wunderground v.1.15,2013-10-27 21:51:00,
2013-10-27 17:57:00,59.3,36.2,30.03,WSW,247,0.0,0.0,42,0.00,,,0.00,Wunderground v.1.15,2013-10-27 21:57:00,
2013-10-27 18:03:00,59.3,36.8,30.03,WSW,247,0.0,0.0,43,0.00,,,0.00,Wunderground v.1.15,2013-10-27 22:03:00,
2013-10-27 18:09:00,59.4,36.9,30.02,WSW,247,0.0,0.0,43,0.00,,,0.00,Wunderground v.1.15,2013-10-27 22:09:00,
2013-10-27 18:15:00,59.4,37.5,30.03,WSW,247,0.0,0.0,44,0.00,,,0.00,Wunderground v.1.15,2013-10-27 22:15:00,
2013-10-27 18:21:00,58.9,38.1,30.03,WSW,247,0.0,0.0,46,0.00,,,0.00,Wunderground v.1.15,2013-10-27 22:21:00,
2013-10-27 18:27:00,58.2,38.1,30.03,NNE,22,0.0,0.0,47,0.00,,,0.00,Wunderground v.1.15,2013-10-27 22:27:00,
2013-10-27 18:33:00,57.4,38.9,30.03,NNE,22,0.0,0.0,50,0.00,,,0.00,Wunderground v.1.15,2013-10-27 22:33:00,
2013-10-27 18:39:00,56.3,37.9,30.03,NNE,22,0.0,0.0,50,0.00,,,0.00,Wunderground v.1.15,2013-10-27 22:39:00,
2013-10-27 18:45:00,55.3,38.0,30.03,NNE,22,0.0,0.0,52,0.00,,,0.00,Wunderground v.1.15,2013-10-27 22:45:00,
2013-10-27 18:51:00,54.4,37.6,30.03,NNE,22,0.0,0.0,53,0.00,,,0.00,Wunderground v.1.15,2013-10-27 22:51:00,
2013-10-27 18:57:00,53.6,37.3,30.03,NNE,22,0.0,0.0,54,0.00,,,0.00,Wunderground v.1.15,2013-10-27 22:57:00,
2013-10-27 19:03:00,52.8,37.5,30.03,NNE,22,0.0,0.0,56,0.00,,,0.00,Wunderground v.1.15,2013-10-27 23:03:00,
2013-10-27 19:09:00,52.0,37.2,30.03,NNE,22,0.0,0.0,57,0.00,,,0.00,Wunderground v.1.15,2013-10-27 23:09:00,
2013-10-27 19:15:00,51.3,37.0,30.03,NNE,22,0.0,0.0,58,0.00,,,0.00,Wunderground v.1.15,2013-10-27 23:15:00,
2013-10-27 19:21:00,50.8,37.4,30.03,NNE,22,0.0,0.0,60,0.00,,,0.00,Wunderground v.1.15,2013-10-27 23:21:00,
2013-10-27 19:27:00,50.3,36.9,30.03,NNE,22,0.0,0.0,60,0.00,,,0.00,Wunderground v.1.15,2013-10-27 23:27:00,
2013-10-27 19:33:00,49.7,37.2,30.03,NNE,22,0.0,0.0,62,0.00,,,0.00,Wunderground v.1.15,2013-10-27 23:33:00,
2013-10-27 19:39:00,49.1,37.0,30.03,NNE,22,0.0,0.0,63,0.00,,,0.00,Wunderground v.1.15,2013-10-27 23:39:00,
2013-10-27 19:45:00,48.5,36.5,30.04,NNE,22,0.0,0.0,63,0.00,,,0.00,Wunderground v.1.15,2013-10-27 23:45:00,
2013-10-27 19:51:00,47.9,36.3,30.04,NNE,22,0.0,0.0,64,0.00,,,0.00,Wunderground v.1.15,2013-10-27 23:51:00,
2013-10-27 19:57:00,47.3,36.9,30.04,NNE,22,0.0,0.0,67,0.00,,,0.00,Wunderground v.1.15,2013-10-27 23:57:00,
2013-10-27 20:03:00,46.8,36.4,30.04,NNE,22,0.0,0.0,67,0.00,,,0.00,Wunderground v.1.15,2013-10-28 00:03:00,
2013-10-27 20:09:00,46.5,36.5,30.05,NNE,22,0.0,0.0,68,0.00,,,0.00,Wunderground v.1.15,2013-10-28 00:09:00,
2013-10-27 20:15:00,46.2,36.6,30.04,NNE,22,0.0,0.0,69,0.00,,,0.00,Wunderground v.1.15,2013-10-28 00:15:00,
2013-10-27 20:21:00,45.9,36.3,30.05,NNE,22,0.0,0.0,69,0.00,,,0.00,Wunderground v.1.15,2013-10-28 00:21:00,
2013-10-27 20:27:00,45.6,36.4,30.04,NNE,22,0.0,0.0,70,0.00,,,0.00,Wunderground v.1.15,2013-10-28 00:27:00,
2013-10-27 20:33:00,45.2,36.7,30.05,NNE,22,0.0,0.0,72,0.00,,,0.00,Wunderground v.1.15,2013-10-28 00:33:00,
2013-10-27 20:39:00,44.8,36.3,30.05,NNE,22,0.0,0.0,72,0.00,,,0.00,Wunderground v.1.15,2013-10-28 00:39:00,
2013-10-27 20:45:00,44.5,36.4,30.05,NNE,22,0.0,0.0,73,0.00,,,0.00,Wunderground v.1.15,2013-10-28 00:45:00,
2013-10-27 20:51:00,44.1,36.0,30.05,NNE,22,0.0,0.0,73,0.00,,,0.00,Wunderground v.1.15,2013-10-28 00:51:00,
2013-10-27 20:57:00,43.6,35.9,30.05,NNE,22,0.0,0.0,74,0.00,,,0.00,Wunderground v.1.15,2013-10-28 00:57:00,
2013-10-27 21:03:00,43.2,36.1,30.05,NNE,22,0.0,0.0,76,0.00,,,0.00,Wunderground v.1.15,2013-10-28 01:03:00,
2013-10-27 21:09:00,42.8,36.1,30.05,NNE,22,0.0,0.0,77,0.00,,,0.00,Wunderground v.1.15,2013-10-28 01:09:00,
2013-10-27 21:15:00,42.5,35.5,30.05,NNE,22,0.0,0.0,76,0.00,,,0.00,Wunderground v.1.15,2013-10-28 01:15:00,
2013-10-27 21:21:00,42.2,35.8,30.05,NNE,22,0.0,0.0,78,0.00,,,0.00,Wunderground v.1.15,2013-10-28 01:21:00,
2013-10-27 21:27:00,41.8,35.8,30.06,NNE,22,0.0,0.0,79,0.00,,,0.00,Wunderground v.1.15,2013-10-28 01:27:00,
2013-10-27 21:33:00,41.5,36.1,30.05,NNE,22,0.0,0.0,81,0.00,,,0.00,Wunderground v.1.15,2013-10-28 01:33:00,
2013-10-27 21:39:00,41.5,36.1,30.05,NNE,22,0.0,0.0,81,0.00,,,0.00,Wunderground v.1.15,2013-10-28 01:39:00,
2013-10-27 21:45:00,41.5,36.1,30.06,NNE,22,0.0,0.0,81,0.00,,,0.00,Wunderground v.1.15,2013-10-28 01:45:00,
2013-10-27 21:51:00,41.2,35.8,30.06,NNE,22,0.0,0.0,81,0.00,,,0.00,Wunderground v.1.15,2013-10-28 01:51:00,
2013-10-27 21:57:00,40.9,35.8,30.06,NNE,22,0.0,0.0,82,0.00,,,0.00,Wunderground v.1.15,2013-10-28 01:57:00,
2013-10-27 22:03:00,40.6,35.8,30.05,NNE,22,0.0,0.0,83,0.00,,,0.00,Wunderground v.1.15,2013-10-28 02:03:00,
2013-10-27 22:09:00,40.4,35.9,30.06,NNE,22,0.0,0.0,84,0.00,,,0.00,Wunderground v.1.15,2013-10-28 02:09:00,
2013-10-27 22:15:00,40.2,35.8,30.06,NNE,22,0.0,0.0,84,0.00,,,0.00,Wunderground v.1.15,2013-10-28 02:15:00,
2013-10-27 22:21:00,40.0,35.9,30.06,NNE,22,0.0,0.0,85,0.00,,,0.00,Wunderground v.1.15,2013-10-28 02:21:00,
2013-10-27 22:27:00,39.9,35.8,30.07,NNE,22,0.0,0.0,85,0.00,,,0.00,Wunderground v.1.15,2013-10-28 02:27:00,
2013-10-27 22:33:00,39.7,35.6,30.07,NNE,22,0.0,0.0,85,0.00,,,0.00,Wunderground v.1.15,2013-10-28 02:33:00,
2013-10-27 22:39:00,39.4,35.3,30.06,NNE,22,0.0,0.0,85,0.00,,,0.00,Wunderground v.1.15,2013-10-28 02:39:00,
2013-10-27 22:45:00,39.0,35.2,30.06,NNE,22,0.0,0.0,86,0.00,,,0.00,Wunderground v.1.15,2013-10-28 02:45:00,
2013-10-27 22:51:00,38.9,35.6,30.07,NNE,22,0.0,0.0,88,0.00,,,0.00,Wunderground v.1.15,2013-10-28 02:51:00,
2013-10-27 22:57:00,38.8,35.6,30.07,NNE,22,0.0,0.0,88,0.00,,,0.00,Wunderground v.1.15,2013-10-28 02:57:00,
2013-10-27 23:03:00,38.9,36.2,30.07,NNE,22,0.0,0.0,90,0.00,,,0.00,Wunderground v.1.15,2013-10-28 03:03:00,
2013-10-27 23:09:00,39.0,36.0,30.07,NNE,22,0.0,0.0,89,0.00,,,0.00,Wunderground v.1.15,2013-10-28 03:09:00,
2013-10-27 23:15:00,38.9,35.6,30.07,NNE,22,0.0,0.0,88,0.00,,,0.00,Wunderground v.1.15,2013-10-28 03:15:00,
2013-10-27 23:21:00,38.6,35.4,30.07,NNE,22,0.0,0.0,88,0.00,,,0.00,Wunderground v.1.15,2013-10-28 03:21:00,
2013-10-27 23:27:00,38.3,35.1,30.07,NNE,22,0.0,0.0,88,0.00,,,0.00,Wunderground v.1.15,2013-10-28 03:27:00,
2013-10-27 23:33:00,38.1,35.1,30.07,NNE,22,0.0,0.0,89,0.00,,,0.00,Wunderground v.1.15,2013-10-28 03:33:00,
2013-10-27 23:39:00,37.9,34.9,30.07,NNE,22,0.0,0.0,89,0.00,,,0.00,Wunderground v.1.15,2013-10-28 03:39:00,
2013-10-27 23:45:00,37.7,34.8,30.07,NNE,22,0.0,0.0,89,0.00,,,0.00,Wunderground v.1.15,2013-10-28 03:45:00,
2013-10-27 23:51:00,37.6,34.9,30.07,NNE,22,0.0,0.0,90,0.00,,,0.00,Wunderground v.1.15,2013-10-28 03:51:00,
2013-10-27 23:57:00,37.6,35.2,30.07,NNE,22,0.0,0.0,91,0.00,,,0.00,Wunderground v.1.15,2013-10-28 03:57:00,